Time,TemperatureF,DewpointF,PressureIn,WindDirection,WindDirectionDegrees,WindSpeedMPH,WindSpeedGustMPH,Humidity,HourlyPrecipIn,Conditions,Clouds,dailyrainin,SoftwareType,DateUTC
2013-01-25 00:04:00,56.1,50.7,30.21,North,-999,0.0,0.0,82,0.00,,,-99.99,FreeWX-Wi 1.01,2013-01-25 08:04:00,
2013-01-25 00:14:00,56.1,50.7,30.18,North,-999,0.0,0.0,82,0.00,,,-99.99,FreeWX-Wi 1.01,2013-01-25 08:14:00,
2013-01-25 00:24:00,55.9,50.5,30.18,North,-999,0.0,0.0,82,0.00,,,-99.99,FreeWX-Wi 1.01,2013-01-25 08:24:00,
2013-01-25 00:34:00,55.8,50.4,30.18,North,-999,0.0,0.0,82,0.00,,,-99.99,FreeWX-Wi 1.01,2013-01-25 08:34:00,
2013-01-25 00:44:00,55.8,50.4,30.18,North,-999,0.0,0.0,82,0.00,,,-99.99,FreeWX-Wi 1.01,2013-01-25 08:44:00,
2013-01-25 00:54:00,55.8,50.4,30.18,North,-999,0.0,0.0,82,0.00,,,-99.99,FreeWX-Wi 1.01,2013-01-25 08:54:00,
2013-01-25 01:04:00,55.9,50.5,30.18,North,-999,0.0,0.0,82,0.00,,,-99.99,FreeWX-Wi 1.01,2013-01-25 09:04:00,
2013-01-25 01:14:00,55.9,50.5,30.18,North,-999,0.0,0.0,82,0.00,,,-99.99,FreeWX-Wi 1.01,2013-01-25 09:14:00,
2013-01-25 01:24:00,55.8,50.4,30.18,North,-999,0.0,0.0,82,0.00,,,-99.99,FreeWX-Wi 1.01,2013-01-25 09:24:00,
2013-01-25 01:34:00,55.9,50.5,30.18,North,-999,0.0,0.0,82,0.00,,,-99.99,FreeWX-Wi 1.01,2013-01-25 09:34:00,
2013-01-25 01:45:00,55.9,50.5,30.21,North,-999,0.0,0.0,82,0.00,,,-99.99,FreeWX-Wi 1.01,2013-01-25 09:45:00,
2013-01-25 01:55:00,55.9,50.5,30.21,North,-999,0.0,0.0,82,0.00,,,-99.99,FreeWX-Wi 1.01,2013-01-25 09:55:00,
2013-01-25 02:05:00,55.9,50.5,30.21,North,-999,0.0,0.0,82,0.00,,,-99.99,FreeWX-Wi 1.01,2013-01-25 10:05:00,
2013-01-25 02:15:00,55.9,50.5,30.21,North,-999,0.0,0.0,82,0.00,,,-99.99,FreeWX-Wi 1.01,2013-01-25 10:15:00,
2013-01-25 02:25:00,55.6,50.5,30.21,North,-999,0.0,0.0,83,0.00,,,-99.99,FreeWX-Wi 1.01,2013-01-25 10:25:00,
2013-01-25 02:35:00,55.6,50.5,30.21,North,-999,0.0,0.0,83,0.00,,,-99.99,FreeWX-Wi 1.01,2013-01-25 10:35:00,
2013-01-25 02:45:00,55.6,50.5,30.21,North,-999,0.0,0.0,83,0.00,,,-99.99,FreeWX-Wi 1.01,2013-01-25 10:45:00,
2013-01-25 02:55:00,55.6,50.5,30.18,North,-999,0.0,0.0,83,0.00,,,-99.99,FreeWX-Wi 1.01,2013-01-25 10:55:00,
2013-01-25 03:05:00,55.6,50.5,30.18,North,-999,0.0,0.0,83,0.00,,,-99.99,FreeWX-Wi 1.01,2013-01-25 11:05:00,
2013-01-25 03:15:00,55.4,50.4,30.18,North,-999,0.0,0.0,83,0.00,,,-99.99,FreeWX-Wi 1.01,2013-01-25 11:15:00,
2013-01-25 03:25:00,55.2,50.5,30.18,North,-999,0.0,0.0,84,0.00,,,-99.99,FreeWX-Wi 1.01,2013-01-25 11:25:00,
2013-01-25 03:35:00,55.0,50.4,30.18,North,-999,0.0,0.0,84,0.00,,,-99.99,FreeWX-Wi 1.01,2013-01-25 11:35:00,
2013-01-25 03:45:00,55.0,50.4,30.18,North,-999,0.0,0.0,84,0.00,,,-99.99,FreeWX-Wi 1.01,2013-01-25 11:45:00,
2013-01-25 03:55:00,54.9,50.2,30.18,North,-999,0.0,0.0,84,0.00,,,-99.99,FreeWX-Wi 1.01,2013-01-25 11:55:00,
2013-01-25 04:05:00,54.7,50.0,30.18,North,-999,0.0,0.0,84,0.00,,,-99.99,FreeWX-Wi 1.01,2013-01-25 12:05:00,
2013-01-25 04:15:00,54.5,49.8,30.18,North,-999,0.0,0.0,84,0.00,,,-99.99,FreeWX-Wi 1.01,2013-01-25 12:15:00,
2013-01-25 04:25:00,54.5,50.0,30.18,North,-999,0.0,0.0,85,0.00,,,-99.99,FreeWX-Wi 1.01,2013-01-25 12:25:00,
2013-01-25 04:35:00,54.5,50.0,30.18,North,-999,0.0,0.0,85,0.00,,,-99.99,FreeWX-Wi 1.01,2013-01-25 12:35:00,
2013-01-25 04:45:00,54.7,50.2,30.18,North,-999,0.0,0.0,85,0.00,,,-99.99,FreeWX-Wi 1.01,2013-01-25 12:45:00,
2013-01-25 04:55:00,54.7,50.5,30.18,North,-999,0.0,0.0,86,0.00,,,-99.99,FreeWX-Wi 1.01,2013-01-25 12:55:00,
2013-01-25 05:05:00,54.7,50.5,30.18,North,-999,0.0,0.0,86,0.00,,,-99.99,FreeWX-Wi 1.01,2013-01-25 13:05:00,
2013-01-25 05:15:00,54.9,50.7,30.18,North,-999,0.0,0.0,86,0.00,,,-99.99,FreeWX-Wi 1.01,2013-01-25 13:15:00,
2013-01-25 05:25:00,54.9,50.7,30.18,North,-999,0.0,0.0,86,0.00,,,-99.99,FreeWX-Wi 1.01,2013-01-25 13:25:00,
2013-01-25 05:35:00,54.9,50.7,30.18,North,-999,0.0,0.0,86,0.00,,,-99.99,FreeWX-Wi 1.01,2013-01-25 13:35:00,
2013-01-25 05:45:00,55.0,50.9,30.18,North,-999,0.0,0.0,86,0.00,,,-99.99,FreeWX-Wi 1.01,2013-01-25 13:45:00,
2013-01-25 05:55:00,55.0,51.3,30.18,North,-999,0.0,4.0,87,0.00,,,-99.99,FreeWX-Wi 1.01,2013-01-25 13:55:00,
2013-01-25 06:05:00,55.0,51.3,30.18,South,171,1.0,5.4,87,0.00,,,-99.99,FreeWX-Wi 1.01,2013-01-25 14:05:00,
2013-01-25 06:15:00,54.9,51.1,30.18,ENE,67,1.0,4.0,87,0.00,,,-99.99,FreeWX-Wi 1.01,2013-01-25 14:15:00,
2013-01-25 06:25:00,54.9,51.4,30.18,NE,55,1.0,3.1,88,0.00,,,-99.99,FreeWX-Wi 1.01,2013-01-25 14:25:00,
2013-01-25 06:35:00,54.9,51.4,30.18,NE,53,1.0,5.4,88,0.00,,,-99.99,FreeWX-Wi 1.01,2013-01-25 14:35:00,
2013-01-25 06:45:00,54.9,51.6,30.18,ENE,61,2.0,5.8,89,0.00,,,-99.99,FreeWX-Wi 1.01,2013-01-25 14:45:00,
2013-01-25 06:55:00,54.9,51.6,30.18,ENE,69,1.0,0.0,89,0.00,,,-99.99,FreeWX-Wi 1.01,2013-01-25 14:55:00,
2013-01-25 07:05:00,54.9,51.6,30.18,North,-999,0.0,0.0,89,0.00,,,-99.99,FreeWX-Wi 1.01,2013-01-25 15:05:00,
2013-01-25 07:15:00,54.9,51.6,30.18,North,-999,0.0,0.0,89,0.00,,,-99.99,FreeWX-Wi 1.01,2013-01-25 15:15:00,
2013-01-25 07:25:00,54.9,51.6,30.18,North,-999,0.0,0.0,89,0.00,,,-99.99,FreeWX-Wi 1.01,2013-01-25 15:25:00,
2013-01-25 07:35:00,54.9,51.6,30.18,North,-999,0.0,0.0,89,0.00,,,-99.99,FreeWX-Wi 1.01,2013-01-25 15:35:00,
2013-01-25 07:45:00,54.7,51.4,30.18,North,-999,0.0,0.0,89,0.00,,,-99.99,FreeWX-Wi 1.01,2013-01-25 15:45:00,
2013-01-25 07:55:00,54.7,51.4,30.15,North,-999,0.0,0.0,89,0.00,,,-99.99,FreeWX-Wi 1.01,2013-01-25 15:55:00,
2013-01-25 08:05:00,54.5,51.3,30.15,North,-999,0.0,4.0,89,0.00,,,-99.99,FreeWX-Wi 1.01,2013-01-25 16:05:00,
2013-01-25 08:15:00,54.3,51.1,30.18,North,-999,0.0,2.2,89,0.00,,,-99.99,FreeWX-Wi 1.01,2013-01-25 16:15:00,
2013-01-25 08:25:00,54.3,51.1,30.18,North,-999,0.0,0.0,89,0.00,,,-99.99,FreeWX-Wi 1.01,2013-01-25 16:25:00,
2013-01-25 08:35:00,54.5,51.6,30.18,North,-999,0.0,0.0,90,0.00,,,-99.99,FreeWX-Wi 1.01,2013-01-25 16:35:00,
2013-01-25 08:45:00,55.6,52.7,30.18,North,-999,0.0,5.4,90,0.00,,,-99.99,FreeWX-Wi 1.01,2013-01-25 16:45:00,
2013-01-25 08:55:00,56.1,53.6,30.18,ENE,70,1.0,4.9,91,0.00,,,-99.99,FreeWX-Wi 1.01,2013-01-25 16:55:00,
2013-01-25 09:05:00,56.3,53.4,30.18,ENE,65,1.0,2.7,90,0.00,,,-99.99,FreeWX-Wi 1.01,2013-01-25 17:05:00,
2013-01-25 09:15:00,56.7,53.8,30.18,North,-999,0.0,0.0,90,0.00,,,-99.99,FreeWX-Wi 1.01,2013-01-25 17:15:00,
2013-01-25 09:25:00,56.8,54.0,30.18,North,-999,0.0,0.0,90,0.00,,,-99.99,FreeWX-Wi 1.01,2013-01-25 17:25:00,
2013-01-25 09:35:00,56.8,54.0,30.18,North,-999,0.0,0.0,90,0.00,,,-99.99,FreeWX-Wi 1.01,2013-01-25 17:35:00,
2013-01-25 09:45:00,57.2,54.0,30.18,North,-999,0.0,0.0,89,0.00,,,-99.99,FreeWX-Wi 1.01,2013-01-25 17:45:00,
2013-01-25 09:55:00,57.6,54.3,30.18,North,-999,0.0,3.6,89,0.00,,,-99.99,FreeWX-Wi 1.01,2013-01-25 17:55:00,
2013-01-25 10:05:00,57.9,54.7,30.18,North,-999,0.0,4.0,89,0.00,,,-99.99,FreeWX-Wi 1.01,2013-01-25 18:05:00,
2013-01-25 10:15:00,58.3,54.7,30.18,North,-999,0.0,2.7,88,0.00,,,-99.99,FreeWX-Wi 1.01,2013-01-25 18:15:00,
2013-01-25 10:25:00,58.6,55.0,30.18,North,-999,0.0,5.4,88,0.00,,,-99.99,FreeWX-Wi 1.01,2013-01-25 18:25:00,
2013-01-25 10:35:00,59.0,55.2,30.18,SSW,197,1.0,4.9,87,0.00,,,-99.99,FreeWX-Wi 1.01,2013-01-25 18:35:00,
2013-01-25 10:45:00,59.4,54.9,30.15,South,180,1.0,5.4,85,0.00,,,-99.99,FreeWX-Wi 1.01,2013-01-25 18:45:00,
2013-01-25 10:55:00,59.7,54.9,30.18,South,175,1.0,4.0,84,0.00,,,-99.99,FreeWX-Wi 1.01,2013-01-25 18:55:00,
2013-01-25 11:05:00,59.9,54.7,30.18,South,171,1.0,5.8,83,0.00,,,-99.99,FreeWX-Wi 1.01,2013-01-25 19:05:00,
2013-01-25 11:15:00,59.9,54.7,30.18,SSE,159,1.0,4.0,83,0.00,,,-99.99,FreeWX-Wi 1.01,2013-01-25 19:15:00,
2013-01-25 11:25:00,60.1,54.5,30.15,SE,132,1.0,5.4,82,0.00,,,-99.99,FreeWX-Wi 1.01,2013-01-25 19:25:00,
2013-01-25 11:35:00,60.3,54.3,30.15,ESE,109,1.0,4.0,81,0.00,,,-99.99,FreeWX-Wi 1.01,2013-01-25 19:35:00,
2013-01-25 11:45:00,60.8,54.3,30.15,North,-999,0.0,4.0,79,0.00,,,-99.99,FreeWX-Wi 1.01,2013-01-25 19:45:00,
2013-01-25 11:55:00,61.3,53.4,30.15,North,-999,0.0,4.0,75,0.00,,,-99.99,FreeWX-Wi 1.01,2013-01-25 19:55:00,
2013-01-25 12:05:00,62.2,53.4,30.15,SE,131,1.0,5.4,73,0.00,,,-99.99,FreeWX-Wi 1.01,2013-01-25 20:05:00,
2013-01-25 12:15:00,62.8,52.0,30.15,ESE,111,1.0,5.8,68,0.00,,,-99.99,FreeWX-Wi 1.01,2013-01-25 20:15:00,
2013-01-25 12:25:00,63.9,52.7,30.12,East,101,2.0,5.8,67,0.00,,,-99.99,FreeWX-Wi 1.01,2013-01-25 20:25:00,
2013-01-25 12:35:00,63.9,51.4,30.12,ENE,77,2.0,4.9,64,0.00,,,-99.99,FreeWX-Wi 1.01,2013-01-25 20:35:00,
2013-01-25 12:45:00,64.4,51.4,30.12,East,82,2.0,6.3,63,0.00,,,-99.99,FreeWX-Wi 1.01,2013-01-25 20:45:00,
2013-01-25 12:55:00,64.0,49.8,30.12,ENE,75,2.0,5.8,60,0.00,,,-99.99,FreeWX-Wi 1.01,2013-01-25 20:55:00,
2013-01-25 13:05:00,64.2,50.5,30.12,ENE,73,2.0,5.8,61,0.00,,,-99.99,FreeWX-Wi 1.01,2013-01-25 21:05:00,
2013-01-25 13:15:00,64.0,50.4,30.12,ENE,57,2.0,5.4,61,0.00,,,-99.99,FreeWX-Wi 1.01,2013-01-25 21:15:00,
2013-01-25 13:25:00,64.0,50.4,30.12,NE,56,2.0,8.1,61,0.00,,,-99.99,FreeWX-Wi 1.01,2013-01-25 21:25:00,
2013-01-25 13:35:00,63.7,50.0,30.12,ENE,58,3.0,5.8,61,0.00,,,-99.99,FreeWX-Wi 1.01,2013-01-25 21:35:00,
2013-01-25 13:45:00,63.7,50.0,30.09,ENE,64,3.0,5.8,61,0.00,,,-99.99,FreeWX-Wi 1.01,2013-01-25 21:45:00,
2013-01-25 13:55:00,63.5,50.2,30.09,ENE,73,3.0,5.4,62,0.00,,,-99.99,FreeWX-Wi 1.01,2013-01-25 21:55:00,
2013-01-25 14:05:00,63.5,50.2,30.09,ENE,69,2.0,4.0,62,0.00,,,-99.99,FreeWX-Wi 1.01,2013-01-25 22:05:00,
2013-01-25 14:15:00,63.3,50.5,30.09,ENE,67,2.0,7.2,63,0.00,,,-99.99,FreeWX-Wi 1.01,2013-01-25 22:15:00,
2013-01-25 14:25:00,63.3,50.0,30.09,NE,56,2.0,5.8,62,0.00,,,-99.99,FreeWX-Wi 1.01,2013-01-25 22:25:00,
2013-01-25 14:35:00,63.0,49.3,30.09,NE,48,3.0,8.1,61,0.00,,,-99.99,FreeWX-Wi 1.01,2013-01-25 22:35:00,
2013-01-25 14:45:00,62.6,49.8,30.09,NNE,19,3.0,6.3,63,0.00,,,-99.99,FreeWX-Wi 1.01,2013-01-25 22:45:00,
2013-01-25 14:55:00,62.2,49.8,30.06,NNW,347,2.0,5.4,64,0.00,,,-99.99,FreeWX-Wi 1.01,2013-01-25 22:55:00,
2013-01-25 15:05:00,62.2,50.4,30.06,NNW,341,2.0,5.4,65,0.00,,,-99.99,FreeWX-Wi 1.01,2013-01-25 23:05:00,
2013-01-25 15:15:00,62.2,50.4,30.09,NNW,340,2.0,5.8,65,0.00,,,-99.99,FreeWX-Wi 1.01,2013-01-25 23:15:00,
2013-01-25 15:25:00,62.2,50.4,30.09,NNW,345,3.0,7.2,65,0.00,,,-99.99,FreeWX-Wi 1.01,2013-01-25 23:25:00,
2013-01-25 15:35:00,62.2,50.4,30.09,NNW,341,2.0,6.7,65,0.00,,,-99.99,FreeWX-Wi 1.01,2013-01-25 23:35:00,
2013-01-25 15:45:00,62.1,50.5,30.09,NNW,344,2.0,6.3,66,0.00,,,-99.99,FreeWX-Wi 1.01,2013-01-25 23:45:00,
2013-01-25 15:55:00,61.9,50.4,30.06,North,8,2.0,5.4,66,0.00,,,-99.99,FreeWX-Wi 1.01,2013-01-25 23:55:00,
2013-01-25 16:05:00,62.1,50.2,30.06,NE,39,1.0,4.9,65,0.00,,,-99.99,FreeWX-Wi 1.01,2013-01-26 00:05:00,
2013-01-25 16:15:00,61.9,49.6,30.06,NE,43,1.0,4.5,64,0.00,,,-99.99,FreeWX-Wi 1.01,2013-01-26 00:15:00,
2013-01-25 16:25:00,61.7,49.5,30.06,NE,41,1.0,4.0,64,0.00,,,-99.99,FreeWX-Wi 1.01,2013-01-26 00:25:00,
2013-01-25 16:35:00,61.5,49.3,30.06,NE,48,1.0,5.4,64,0.00,,,-99.99,FreeWX-Wi 1.01,2013-01-26 00:35:00,
2013-01-25 16:45:00,61.3,49.5,30.06,ENE,57,2.0,4.0,65,0.00,,,-99.99,FreeWX-Wi 1.01,2013-01-26 00:45:00,
2013-01-25 16:55:00,61.5,50.5,30.06,ENE,58,2.0,5.4,67,0.00,,,-99.99,FreeWX-Wi 1.01,2013-01-26 00:55:00,
2013-01-25 17:05:00,61.3,50.7,30.06,ENE,74,1.0,3.6,68,0.00,,,-99.99,FreeWX-Wi 1.01,2013-01-26 01:05:00,
2013-01-25 17:15:00,61.3,51.1,30.06,East,92,1.0,4.9,69,0.00,,,-99.99,FreeWX-Wi 1.01,2013-01-26 01:15:00,
2013-01-25 17:25:00,61.3,51.1,30.06,East,92,1.0,4.0,69,0.00,,,-99.99,FreeWX-Wi 1.01,2013-01-26 01:25:00,
2013-01-25 17:35:00,61.0,50.7,30.06,East,85,1.0,3.6,69,0.00,,,-99.99,FreeWX-Wi 1.01,2013-01-26 01:35:00,
2013-01-25 17:45:00,60.8,50.5,30.06,North,-999,0.0,4.0,69,0.00,,,-99.99,FreeWX-Wi 1.01,2013-01-26 01:45:00,
2013-01-25 17:55:00,60.6,50.7,30.06,North,-999,0.0,3.1,70,0.00,,,-99.99,FreeWX-Wi 1.01,2013-01-26 01:55:00,
2013-01-25 18:05:00,60.4,50.5,30.06,North,-999,0.0,2.2,70,0.00,,,-99.99,FreeWX-Wi 1.01,2013-01-26 02:05:00,
2013-01-25 18:15:00,60.3,50.4,30.06,North,-999,0.0,0.0,70,0.00,,,-99.99,FreeWX-Wi 1.01,2013-01-26 02:15:00,
2013-01-25 18:25:00,60.1,50.2,30.06,North,-999,0.0,0.0,70,0.00,,,-99.99,FreeWX-Wi 1.01,2013-01-26 02:25:00,
2013-01-25 18:35:00,60.3,50.4,30.06,North,-999,0.0,0.0,70,0.00,,,-99.99,FreeWX-Wi 1.01,2013-01-26 02:35:00,
2013-01-25 18:45:00,60.3,50.4,30.06,North,-999,0.0,0.0,70,0.00,,,-99.99,FreeWX-Wi 1.01,2013-01-26 02:45:00,
2013-01-25 18:55:00,60.3,50.9,30.06,North,-999,0.0,4.9,71,0.00,,,-99.99,FreeWX-Wi 1.01,2013-01-26 02:55:00,
2013-01-25 19:05:00,59.9,50.5,30.06,North,-999,0.0,5.8,71,0.00,,,-99.99,FreeWX-Wi 1.01,2013-01-26 03:05:00,
2013-01-25 19:15:00,59.0,50.4,30.06,North,1,2.0,5.8,73,0.00,,,-99.99,FreeWX-Wi 1.01,2013-01-26 03:15:00,
2013-01-25 19:25:00,58.5,50.2,30.06,NNW,334,2.0,6.3,74,0.00,,,-99.99,FreeWX-Wi 1.01,2013-01-26 03:25:00,
2013-01-25 19:35:00,58.1,50.2,30.06,NNW,331,2.0,3.6,75,0.00,,,-99.99,FreeWX-Wi 1.01,2013-01-26 03:35:00,
2013-01-25 19:45:00,58.1,50.5,30.06,NNW,340,1.0,3.6,76,0.00,,,-99.99,FreeWX-Wi 1.01,2013-01-26 03:45:00,
2013-01-25 19:55:00,58.1,50.5,30.06,North,-999,0.0,3.6,76,0.00,,,-99.99,FreeWX-Wi 1.01,2013-01-26 03:55:00,
2013-01-25 20:05:00,58.1,50.2,30.06,North,-999,0.0,3.1,75,0.00,,,-99.99,FreeWX-Wi 1.01,2013-01-26 04:05:00,
2013-01-25 20:15:00,58.3,50.0,30.06,North,-999,0.0,4.0,74,0.00,,,-99.99,FreeWX-Wi 1.01,2013-01-26 04:15:00,
2013-01-25 20:25:00,58.1,49.8,30.06,North,-999,0.0,4.0,74,0.00,,,-99.99,FreeWX-Wi 1.01,2013-01-26 04:25:00,
2013-01-25 20:35:00,58.1,49.8,30.06,North,-999,0.0,3.6,74,0.00,,,-99.99,FreeWX-Wi 1.01,2013-01-26 04:35:00,
2013-01-25 20:45:00,58.1,49.8,30.06,North,-999,0.0,2.7,74,0.00,,,-99.99,FreeWX-Wi 1.01,2013-01-26 04:45:00,
2013-01-25 20:55:00,58.1,49.8,30.06,North,-999,0.0,2.7,74,0.00,,,-99.99,FreeWX-Wi 1.01,2013-01-26 04:55:00,
2013-01-25 21:05:00,57.9,49.6,30.06,North,-999,0.0,0.0,74,0.00,,,-99.99,FreeWX-Wi 1.01,2013-01-26 05:05:00,
2013-01-25 21:15:00,57.7,49.5,30.06,North,-999,0.0,0.0,74,0.00,,,-99.99,FreeWX-Wi 1.01,2013-01-26 05:15:00,
2013-01-25 21:25:00,57.7,49.5,30.06,North,-999,0.0,0.0,74,0.00,,,-99.99,FreeWX-Wi 1.01,2013-01-26 05:25:00,
2013-01-25 21:35:00,57.7,49.5,30.06,North,-999,0.0,0.0,74,0.00,,,-99.99,FreeWX-Wi 1.01,2013-01-26 05:35:00,
2013-01-25 21:45:00,57.6,49.6,30.06,North,-999,0.0,2.7,75,0.00,,,-99.99,FreeWX-Wi 1.01,2013-01-26 05:45:00,
2013-01-25 21:55:00,57.4,49.1,30.06,North,-999,0.0,3.6,74,0.00,,,-99.99,FreeWX-Wi 1.01,2013-01-26 05:55:00,
2013-01-25 22:05:00,57.0,49.1,30.06,North,-999,0.0,4.9,75,0.00,,,-99.99,FreeWX-Wi 1.01,2013-01-26 06:05:00,
2013-01-25 22:15:00,56.8,49.3,30.06,North,-999,0.0,4.0,76,0.00,,,-99.99,FreeWX-Wi 1.01,2013-01-26 06:15:00,
2013-01-25 22:25:00,56.8,48.9,30.06,North,-999,0.0,0.0,75,0.00,,,-99.99,FreeWX-Wi 1.01,2013-01-26 06:25:00,
2013-01-25 22:35:00,56.8,48.9,30.06,North,-999,0.0,3.1,75,0.00,,,-99.99,FreeWX-Wi 1.01,2013-01-26 06:35:00,
2013-01-25 22:45:00,56.8,48.9,30.06,North,-999,0.0,3.1,75,0.00,,,-99.99,FreeWX-Wi 1.01,2013-01-26 06:45:00,
2013-01-25 22:55:00,57.0,49.1,30.06,North,-999,0.0,4.0,75,0.00,,,-99.99,FreeWX-Wi 1.01,2013-01-26 06:55:00,
2013-01-25 23:06:00,56.8,48.9,30.06,North,-999,0.0,3.6,75,0.00,,,-99.99,FreeWX-Wi 1.01,2013-01-26 07:06:00,
2013-01-25 23:16:00,56.7,49.1,30.06,North,-999,0.0,4.9,76,0.00,,,-99.99,FreeWX-Wi 1.01,2013-01-26 07:16:00,
2013-01-25 23:26:00,56.3,48.9,30.06,North,-999,0.0,4.0,76,0.00,,,-99.99,FreeWX-Wi 1.01,2013-01-26 07:26:00,
2013-01-25 23:36:00,56.1,48.7,30.06,North,-999,0.0,0.0,76,0.00,,,-99.99,FreeWX-Wi 1.01,2013-01-26 07:36:00,
2013-01-25 23:46:00,55.9,48.9,30.06,North,-999,0.0,0.0,77,0.00,,,-99.99,FreeWX-Wi 1.01,2013-01-26 07:46:00,
2013-01-25 23:56:00,55.9,48.9,30.06,North,-999,0.0,3.1,77,0.00,,,-99.99,FreeWX-Wi 1.01,2013-01-26 07:56:00,